�v������,���O�C��(��),���O���x(��),�Ɠx(lx),��O�J�Z���T�[(1:�~�J),����(m/s)
2023-04-01 00:00:00,12.5,81.1,2,0.0,2
2023-04-01 00:10:00,12.4,82.8,2,0.0,2
2023-04-01 00:20:00,12,83.6,0,0.0,1
2023-04-01 00:30:00,12.1,83.9,0,0.0,0
2023-04-01 00:40:00,11.9,84.2,0,0.0,1
2023-04-01 00:50:00,11.9,85,0,0.0,0.5
2023-04-01 01:00:00,11.8,85.2,2,0.0,1
2023-04-01 01:10:00,11.8,85.5,0,0.0,1
2023-04-01 01:20:00,11.7,86,2,0.0,1
2023-04-01 01:30:00,11.7,87.3,0,0.0,1
2023-04-01 01:40:00,11.7,88,0,0.0,2
2023-04-01 01:50:00,11.4,88.6,0,0.0,2
2023-04-01 02:00:00,11.3,88.7,0,0.0,2
2023-04-01 02:10:00,11.3,89,0,0.0,1
2023-04-01 02:20:00,11.3,89.1,0,0.0,1
2023-04-01 02:30:00,11,89.4,0,0.0,1
2023-04-01 02:40:00,11,89.7,0,0.0,1
2023-04-01 02:50:00,11,90.4,0,0.0,1
2023-04-01 03:00:00,11,91.2,0,0.0,1
2023-04-01 03:10:00,11,91.5,0,0.0,1
2023-04-01 03:20:00,11.1,91.7,0,0.0,0.5
2023-04-01 03:30:00,10.7,92.1,0,0.0,2
2023-04-01 03:40:00,10.6,92.6,0,0.0,1
2023-04-01 03:50:00,10.9,93.2,0,0.0,1
2023-04-01 04:00:00,10.9,93.8,2,0.0,1
2023-04-01 04:10:00,10.8,93.9,0,0.0,0
2023-04-01 04:20:00,10.6,94.4,0,0.0,1
2023-04-01 04:30:00,10.6,94.6,0,0.0,1
2023-04-01 04:40:00,10.6,95,0,0.0,0.5
2023-04-01 04:50:00,10.6,95.5,0,0.0,0
2023-04-01 05:00:00,10.4,95.9,2,0.0,1
2023-04-01 05:10:00,10.3,95.9,0,0.0,0.5
2023-04-01 05:20:00,10,96,2,0.0,1
2023-04-01 05:30:00,9.9,96.5,2,0.0,1
2023-04-01 05:40:00,10,97,10,0.0,1
2023-04-01 05:50:00,9.7,97.3,104,0.0,1
2023-04-01 06:00:00,9.9,97.7,999.68,0.0,1
2023-04-01 06:10:00,9.9,98.1,999.68,0.0,0
2023-04-01 06:20:00,9.6,98.1,2997.76,0.0,1
2023-04-01 06:30:00,9.9,98.7,14499.8,0.0,1
2023-04-01 06:40:00,9.9,98.6,25989.1,0.0,1
2023-04-01 06:50:00,10.3,98.4,34979.8,0.0,1
2023-04-01 07:00:00,10.2,97.7,40980.5,0.0,0
2023-04-01 07:10:00,10.5,97.4,46981.1,0.0,1
2023-04-01 07:20:00,10.6,97.2,49971.2,0.0,1
2023-04-01 07:30:00,11,96.5,51978.2,0.0,1
2023-04-01 07:40:00,11.1,94.5,49971.2,0.0,1
2023-04-01 07:50:00,11.5,93.3,53985.3,0.0,1
2023-04-01 08:00:00,12.2,90.9,53985.3,0.0,1
2023-04-01 08:10:00,12.6,88.1,52961.3,0.0,0
2023-04-01 08:20:00,13.3,85,51978.2,0.0,1
2023-04-01 08:30:00,14,81.8,48988.2,0.0,1
2023-04-01 08:40:00,14.8,78.3,47964.2,0.0,1
2023-04-01 08:50:00,15.1,77.4,46981.1,0.0,0
2023-04-01 09:00:00,15.8,75.9,44974.1,0.0,1
2023-04-01 09:10:00,16,74.9,42967,0.0,1
2023-04-01 09:20:00,16.1,75.3,41984,0.0,2
2023-04-01 09:30:00,16.7,73.4,39997.4,0.0,1
2023-04-01 09:40:00,16.9,72.1,37990.4,0.0,1
2023-04-01 09:50:00,17,71.8,34979.8,0.0,2
2023-04-01 10:00:00,16.9,70.7,32993.3,0.0,2.5
2023-04-01 10:10:00,16.7,71.6,31989.8,0.0,4
2023-04-01 10:20:00,17.4,70.6,30986.2,0.0,2
2023-04-01 10:30:00,17.2,71.8,30494.7,0.0,1
2023-04-01 10:40:00,18,66.3,29982.7,0.0,2
2023-04-01 10:50:00,17.9,65.5,29982.7,0.0,2
2023-04-01 11:00:00,18.4,63,29982.7,0.0,3.5
2023-04-01 11:10:00,18.7,62.8,27996.2,0.0,3
2023-04-01 11:20:00,18.6,62.6,28999.7,0.0,4
2023-04-01 11:30:00,19.3,60.3,30986.2,0.0,2.5
2023-04-01 11:40:00,19.1,59.8,27996.2,0.0,2.5
2023-04-01 11:50:00,19.3,58.8,29982.7,0.0,2
2023-04-01 12:00:00,19.5,57.1,28999.7,0.0,3
2023-04-01 12:10:00,20,55.9,28999.7,0.0,3
2023-04-01 12:20:00,20.2,56.5,27996.2,0.0,2
2023-04-01 12:30:00,20.1,56.1,29982.7,0.0,1.5
2023-04-01 12:40:00,20.9,53.2,30986.2,0.0,2
2023-04-01 12:50:00,21.3,50.1,30986.2,0.0,1
2023-04-01 13:00:00,20.7,51.6,31989.8,0.0,3
2023-04-01 13:10:00,20.7,50.6,34979.8,0.0,1
2023-04-01 13:20:00,20.8,50.6,33996.8,0.0,2
2023-04-01 13:30:00,20.6,47.8,33996.8,0.0,1
2023-04-01 13:40:00,20.2,49.5,34979.8,0.0,2
2023-04-01 13:50:00,20.6,51.3,33996.8,0.0,1
2023-04-01 14:00:00,20.3,50.5,31989.8,0.0,2
2023-04-01 14:10:00,20.3,52.5,33996.8,0.0,2
2023-04-01 14:20:00,20.2,51.7,33996.8,0.0,1
2023-04-01 14:30:00,20.3,51.1,30986.2,0.0,2
2023-04-01 14:40:00,20.5,49.1,33996.8,0.0,2
2023-04-01 14:50:00,20.3,48.9,27996.2,0.0,2
2023-04-01 15:00:00,19.8,54.3,27996.2,0.0,2.5
2023-04-01 15:10:00,19.3,55.2,27996.2,0.0,1
2023-04-01 15:20:00,19.4,56,29982.7,0.0,1
2023-04-01 15:30:00,19.1,50.7,27484.2,0.0,2
2023-04-01 15:40:00,19.6,47.6,28999.7,0.0,2.5
2023-04-01 15:50:00,19.5,46.7,26992.6,0.0,1
2023-04-01 16:00:00,19.5,46.3,20490.2,0.0,2
2023-04-01 16:10:00,19.5,45,20992,0.0,1
2023-04-01 16:20:00,19.2,55.2,18995.2,0.0,2
2023-04-01 16:30:00,18.3,60,18995.2,0.0,2
2023-04-01 16:40:00,17.7,62.8,13998.1,0.0,1
2023-04-01 16:50:00,17.1,62.8,12994.6,0.0,3
2023-04-01 17:00:00,16.4,65.8,10997.8,0.0,3
2023-04-01 17:10:00,17,62.9,8995.84,0.0,0
2023-04-01 17:20:00,16.9,59.2,7997.44,0.0,2
2023-04-01 17:30:00,17.1,59.7,5995.52,0.0,2
2023-04-01 17:40:00,17,60.5,4999.68,0.0,2
2023-04-01 17:50:00,17.2,59.9,3998.72,0.0,1
2023-04-01 18:00:00,17.2,57.1,0,,0
2023-04-01 18:10:00,17.3,55.4,1999.36,0.0,1
2023-04-01 18:20:00,17.4,55,999.68,0.0,0
2023-04-01 18:30:00,17.3,54,496,0.0,0
2023-04-01 18:40:00,17.4,54.5,164,0.0,0
2023-04-01 18:50:00,16.9,55.6,26,0.0,1
2023-04-01 19:00:00,17,55.4,4,0.0,0
2023-04-01 19:10:00,17,54.9,2,0.0,1
2023-04-01 19:20:00,17,59.4,2,0.0,1
2023-04-01 19:30:00,16.9,60.1,2,0.0,1
2023-04-01 19:40:00,16.7,61.4,2,0.0,1
2023-04-01 19:50:00,16.6,61.5,2,0.0,1
2023-04-01 20:00:00,16.4,62.2,2,0.0,1
2023-04-01 20:10:00,16.2,62.4,2,0.0,1
2023-04-01 20:20:00,16,64.3,2,0.0,1.5
2023-04-01 20:30:00,15.8,67.4,2,0.0,1
2023-04-01 20:40:00,15.7,64.8,2,0.0,1
2023-04-01 20:50:00,15.5,64.9,2,0.0,2
2023-04-01 21:00:00,15.3,62.5,2,0.0,2
2023-04-01 21:10:00,15.1,61.6,2,0.0,2
2023-04-01 21:20:00,15.1,61.1,2,0.0,0
2023-04-01 21:30:00,15.1,60,2,0.0,1
2023-04-01 21:40:00,15,59.5,2,0.0,2
2023-04-01 21:50:00,15.1,59.8,0,0.0,1
2023-04-01 22:00:00,15.2,59.8,2,0.0,1
2023-04-01 22:10:00,14.8,60.2,2,0.0,1
2023-04-01 22:20:00,15,61.1,2,0.0,1.5
2023-04-01 22:30:00,15.1,59.9,0,0.0,1.5
2023-04-01 22:40:00,14.9,60.1,2,0.0,1.5
2023-04-01 22:50:00,15,61.4,0,0.0,1
2023-04-01 23:00:00,15,61.9,2,0.0,1
2023-04-01 23:10:00,14.8,61.4,0,0.0,0
2023-04-01 23:20:00,14.8,62.2,0,0.0,0
2023-04-01 23:30:00,14.7,61.7,2,0.0,1
2023-04-01 23:40:00,14.6,62.1,0,0.0,1
2023-04-01 23:50:00,14.5,63.1,2,0.0,0.5
2023-04-02 00:00:00,14.4,66.2,2,0.0,1
2023-04-02 00:10:00,14.2,67.5,2,0.0,0
2023-04-02 00:20:00,14.1,66.9,2,0.0,0
2023-04-02 00:30:00,14,66.1,0,0.0,1
2023-04-02 00:40:00,14,68.2,2,0.0,0
2023-04-02 00:50:00,13.8,70.5,2,0.0,1
2023-04-02 01:00:00,13.6,71.6,2,0.0,2
2023-04-02 01:10:00,13.5,72.3,0,0.0,1
2023-04-02 01:20:00,13.3,71.4,0,0.0,0.5
2023-04-02 01:30:00,13.2,70.9,0,0.0,1
2023-04-02 01:40:00,13.2,70.8,2,0.0,1
2023-04-02 01:50:00,13.1,71.8,0,0.0,1
2023-04-02 02:00:00,12.9,72.7,2,0.0,1
2023-04-02 02:10:00,12.9,72.5,0,0.0,1
2023-04-02 02:20:00,12.6,73.4,2,0.0,2
2023-04-02 02:30:00,12.5,74.3,2,0.0,1
2023-04-02 02:40:00,12.4,73.7,0,0.0,1.5
2023-04-02 02:50:00,12.5,73.6,0,0.0,1
2023-04-02 03:00:00,12.4,73.5,0,0.0,1
2023-04-02 03:10:00,12.4,74,0,0.0,1
2023-04-02 03:20:00,12.5,73.9,2,0.0,1
2023-04-02 03:30:00,12.1,74.5,0,0.0,0
2023-04-02 03:40:00,12.1,75.2,0,0.0,1
2023-04-02 03:50:00,12.2,75.6,0,0.0,0
2023-04-02 04:00:00,12,75.7,0,0.0,0
2023-04-02 04:10:00,12,75.3,0,0.0,0
2023-04-02 04:20:00,12.1,74.8,2,0.0,0
2023-04-02 04:30:00,11.9,74.6,0,0.0,0
2023-04-02 04:40:00,12,75.8,0,0.0,0
2023-04-02 04:50:00,11.8,76.6,0,0.0,0
2023-04-02 05:00:00,11.7,78.2,2,0.0,1
2023-04-02 05:10:00,11.6,78.4,0,0.0,1
2023-04-02 05:20:00,11.3,79.6,2,0.0,1
2023-04-02 05:30:00,11.1,81.7,2,0.0,1
2023-04-02 05:40:00,11.1,82.6,8,0.0,1
2023-04-02 05:50:00,11.1,82.9,100,0.0,1
2023-04-02 06:00:00,11,83.5,352,0.0,1
2023-04-02 06:10:00,10.9,83.5,999.68,0.0,1
2023-04-02 06:20:00,10.8,83.8,1999.36,0.0,1
2023-04-02 06:30:00,10.9,84.3,11991,0.0,1
2023-04-02 06:40:00,11.1,84.2,14991.4,0.0,1
2023-04-02 06:50:00,11.3,83.4,10997.8,0.0,1
2023-04-02 07:00:00,11.3,82.4,20992,0.0,1
2023-04-02 07:10:00,11.5,80.6,18995.2,0.0,1
2023-04-02 07:20:00,11.6,78.7,21483.5,0.0,1
2023-04-02 07:30:00,12,77.1,35983.4,0.0,1
2023-04-02 07:40:00,12.3,74.8,34979.8,0.0,2
2023-04-02 07:50:00,13.1,72.9,36986.9,0.0,2
2023-04-02 08:00:00,13.5,71.1,42475.5,0.0,1
2023-04-02 08:10:00,13.8,69.8,26992.6,0.0,1.5
2023-04-02 08:20:00,14.6,68.3,36986.9,0.0,0
2023-04-02 08:30:00,15.3,65.3,40980.5,0.0,1
2023-04-02 08:40:00,16.3,60.1,32993.3,0.0,1
2023-04-02 08:50:00,16.2,58.5,30494.7,0.0,1
2023-04-02 09:00:00,16.5,54.2,30986.2,0.0,1
2023-04-02 09:10:00,16.8,51,29982.7,0.0,3
2023-04-02 09:20:00,17.1,49,30986.2,0.0,1.5
2023-04-02 09:30:00,17.1,49.4,37990.4,0.0,2
2023-04-02 09:40:00,17.6,47.5,39997.4,0.0,1
2023-04-02 09:50:00,16.7,51.9,38993.9,0.0,1.5
2023-04-02 10:00:00,16.6,51.3,37990.4,0.0,3
2023-04-02 10:10:00,16.7,50.8,38993.9,0.0,1
2023-04-02 10:20:00,17,50.4,30986.2,0.0,3
2023-04-02 10:30:00,17.1,45.9,37990.4,0.0,4.5
2023-04-02 10:40:00,17.9,44.7,32993.3,0.0,0.5
2023-04-02 10:50:00,18.6,40.6,34979.8,0.0,2
2023-04-02 11:00:00,18.6,41.4,34979.8,0.0,1.5
2023-04-02 11:10:00,18.9,40.7,35983.4,0.0,2
2023-04-02 11:20:00,18.8,39.6,32993.3,0.0,2.5
2023-04-02 11:30:00,18.8,38.2,34979.8,0.0,1
2023-04-02 11:40:00,19,37,33996.8,0.0,4
2023-04-02 11:50:00,19.6,34.5,28999.7,0.0,3
2023-04-02 12:00:00,19.7,34.2,30986.2,0.0,3
2023-04-02 12:10:00,19.7,35.3,35491.8,0.0,3.5
2023-04-02 12:20:00,19.7,29.8,36986.9,0.0,3
2023-04-02 12:30:00,19.5,30,33484.8,0.0,4
2023-04-02 12:40:00,19.8,27.8,38481.9,0.0,2.5
2023-04-02 12:50:00,19.9,26.4,30986.2,0.0,2.5
2023-04-02 13:00:00,19.4,26.5,35983.4,0.0,2
2023-04-02 13:10:00,19.9,27.1,39485.4,0.0,2
2023-04-02 13:20:00,19.9,26.3,35983.4,0.0,2.5
2023-04-02 13:30:00,20.2,28,34979.8,0.0,2.5
2023-04-02 13:40:00,20.2,28.8,32993.3,0.0,1
2023-04-02 13:50:00,20.3,28.8,35983.4,0.0,2
2023-04-02 14:00:00,20.6,26.1,34979.8,0.0,2
2023-04-02 14:10:00,21,25.8,36986.9,0.0,1.5
2023-04-02 14:20:00,19.7,31.8,35983.4,0.0,2
2023-04-02 14:30:00,18.8,36,35983.4,0.0,2
2023-04-02 14:40:00,17.9,40.1,34488.3,0.0,4
2023-04-02 14:50:00,18.2,38.6,32993.3,0.0,2.5
2023-04-02 15:00:00,18.5,38.6,32993.3,0.0,2.5
2023-04-02 15:10:00,18.7,38,29982.7,0.0,3
2023-04-02 15:20:00,18.5,37.7,27996.2,0.0,1
2023-04-02 15:30:00,18.4,39.3,29982.7,0.0,3
2023-04-02 15:40:00,18.9,38.5,26992.6,0.0,2.5
2023-04-02 15:50:00,19,39.1,24985.6,0.0,1
2023-04-02 16:00:00,19.4,36.7,23982.1,0.0,1
2023-04-02 16:10:00,19.6,34.9,21995.5,0.0,1
2023-04-02 16:20:00,19.3,33.7,20992,0.0,1
2023-04-02 16:30:00,19.5,33.9,19998.7,0.0,0
2023-04-02 16:40:00,20.3,29.6,18995.2,0.0,2
2023-04-02 16:50:00,20.2,30.1,16998.4,0.0,2
2023-04-02 17:00:00,19.9,29.2,17991.7,0.0,2
2023-04-02 17:10:00,20,29.5,23490.6,0.0,1.5
2023-04-02 17:20:00,20,27.5,13998.1,0.0,3
2023-04-02 17:30:00,19.9,27,13998.1,0.0,1
2023-04-02 17:40:00,19.9,26.7,16496.6,0.0,1
2023-04-02 17:50:00,20.2,25.3,16998.4,0.0,1
2023-04-02 18:00:00,20.4,23.7,12994.6,0.0,2
2023-04-02 18:10:00,20.2,24.8,8995.84,0.0,1.5
2023-04-02 18:20:00,18.8,31.5,4999.68,0.0,2
2023-04-02 18:30:00,18.2,35.9,1999.36,0.0,2.5
2023-04-02 18:40:00,18.1,33.8,999.68,0.0,1
2023-04-02 18:50:00,18,36.2,120,0.0,2
2023-04-02 19:00:00,18,39.6,10,0.0,1
2023-04-02 19:10:00,17.6,41.9,2,0.0,0
2023-04-02 19:20:00,17.1,45.6,2,0.0,1
2023-04-02 19:30:00,17,48.1,2,0.0,0
2023-04-02 19:40:00,17,51.7,2,0.0,1
2023-04-02 19:50:00,16.8,53.4,2,0.0,1
2023-04-02 20:00:00,17,58.9,2,0.0,2
2023-04-02 20:10:00,16.9,61.2,2,0.0,2
2023-04-02 20:20:00,16.7,61.5,2,0.0,2
2023-04-02 20:30:00,16.6,61.9,2,0.0,1
2023-04-02 20:40:00,16.3,62.8,2,0.0,2.5
2023-04-02 20:50:00,16.3,63.1,2,0.0,1
2023-04-02 21:00:00,16.2,64,2,0.0,3
2023-04-02 21:10:00,16.1,66.2,0,0.0,2
2023-04-02 21:20:00,15.9,66.2,2,0.0,1.5
2023-04-02 21:30:00,15.8,69.5,2,0.0,1
2023-04-02 21:40:00,15.2,55.5,2,0.0,0.5
2023-04-02 21:50:00,14.8,54.3,0,0.0,1
2023-04-02 22:00:00,14.7,55.5,2,0.0,0
2023-04-02 22:10:00,14.5,56.2,0,0.0,0
2023-04-02 22:20:00,14,56.8,2,0.0,1
2023-04-02 22:30:00,13.9,57.7,0,0.0,1
2023-04-02 22:40:00,13.5,59.4,2,0.0,2
2023-04-02 22:50:00,13.2,60.5,2,0.0,1
2023-04-02 23:00:00,12.9,61.2,2,0.0,1
2023-04-02 23:10:00,12.9,62,2,0.0,1
2023-04-02 23:20:00,13.1,62.6,0,0.0,0
2023-04-02 23:30:00,12.8,62.8,0,0.0,1
2023-04-02 23:40:00,12.7,63.6,2,0.0,1
2023-04-02 23:50:00,12.3,64.6,2,0.0,1
2023-04-03 00:00:00,12.4,67.5,2,0.0,1
2023-04-03 00:10:00,12.1,68.2,0,0.0,0
2023-04-03 00:20:00,11.9,68.6,0,0.0,1
2023-04-03 00:30:00,11.9,69.7,2,0.0,0
2023-04-03 00:40:00,11.5,70.5,0,0.0,0.5
2023-04-03 00:50:00,11.4,71.6,0,0.0,0
2023-04-03 01:00:00,11.3,72.3,0,0.0,1
2023-04-03 01:10:00,11,73.2,0,0.0,1
2023-04-03 01:20:00,11,74,0,0.0,1
2023-04-03 01:30:00,10.5,74.7,0,0.0,1
2023-04-03 01:40:00,10.8,75.6,0,0.0,1
2023-04-03 01:50:00,10.5,76.7,2,0.0,1
2023-04-03 02:00:00,10.4,76.9,2,0.0,0
2023-04-03 02:10:00,10.2,77.4,0,0.0,1
2023-04-03 02:20:00,10,77.6,0,0.0,1
2023-04-03 02:30:00,10,78.8,0,0.0,1
2023-04-03 02:40:00,9.9,79.7,0,0.0,0
2023-04-03 02:50:00,9.8,80.1,2,0.0,0
2023-04-03 03:00:00,9.6,80.5,0,0.0,1
2023-04-03 03:10:00,9.7,80.8,0,0.0,0
2023-04-03 03:20:00,9.5,80.8,0,0.0,1
2023-04-03 03:30:00,9.8,80.9,0,0.0,1
2023-04-03 03:40:00,9.7,81.3,2,0.0,1
2023-04-03 03:50:00,9.3,81.5,0,0.0,1.5
2023-04-03 04:00:00,9.4,81.3,0,0.0,1
2023-04-03 04:10:00,9.5,81.8,0,0.0,1
2023-04-03 04:20:00,8.9,82.3,0,0.0,1
2023-04-03 04:30:00,8.9,83.1,0,0.0,1
2023-04-03 04:40:00,8.7,84.1,0,0.0,1
2023-04-03 04:50:00,8.6,84.8,0,0.0,1
2023-04-03 05:00:00,8.4,83.6,0,0.0,0
2023-04-03 05:10:00,8.7,82.1,0,0.0,0.5
2023-04-03 05:20:00,8.5,81.8,2,0.0,1
2023-04-03 05:30:00,8.6,81.6,2,0.0,1
2023-04-03 05:40:00,8.7,80.8,14,0.0,1
2023-04-03 05:50:00,8.6,81.3,148,0.0,1
2023-04-03 06:00:00,8.5,82.8,999.68,0.0,0
2023-04-03 06:10:00,8.3,83.6,999.68,0.0,1
2023-04-03 06:20:00,8.2,83.6,5995.52,0.0,1
2023-04-03 06:30:00,8.3,82.7,22999,0.0,1
2023-04-03 06:40:00,8.2,81.7,33996.8,0.0,1
2023-04-03 06:50:00,8.7,78.9,40980.5,0.0,1
2023-04-03 07:00:00,9,76.2,47964.2,0.0,1
2023-04-03 07:10:00,9.2,75.1,51978.2,0.0,1
2023-04-03 07:20:00,9.5,73.1,53985.3,0.0,2
2023-04-03 07:30:00,10.1,71.3,55992.3,0.0,1
2023-04-03 07:40:00,10.5,68.7,57999.4,0.0,1.5
2023-04-03 07:50:00,11,67.1,57999.4,0.0,1
2023-04-03 08:00:00,11.4,65.8,56975.4,0.0,1
2023-04-03 08:10:00,11.8,64.2,55992.3,0.0,2
2023-04-03 08:20:00,12.8,62.5,54968.3,0.0,1
2023-04-03 08:30:00,13.6,60.8,52961.3,0.0,1
2023-04-03 08:40:00,14,57.9,50995.2,0.0,1
2023-04-03 08:50:00,14.5,54.1,49971.2,0.0,1
2023-04-03 09:00:00,15.1,51,46981.1,0.0,1
2023-04-03 09:10:00,15.6,50.2,44974.1,0.0,2
2023-04-03 09:20:00,15.8,48.8,42967,0.0,2
2023-04-03 09:30:00,15.7,49.2,39997.4,0.0,1
2023-04-03 09:40:00,16,47.3,37990.4,0.0,1
2023-04-03 09:50:00,15.7,48.5,34979.8,0.0,2
2023-04-03 10:00:00,15.3,49,33996.8,0.0,1
2023-04-03 10:10:00,15.5,46.5,32481.3,0.0,3
2023-04-03 10:20:00,15.4,45.8,30986.2,0.0,2
2023-04-03 10:30:00,16.1,44.6,30986.2,0.0,1
2023-04-03 10:40:00,16.3,44.2,29982.7,0.0,2
2023-04-03 10:50:00,17.9,41.2,28999.7,0.0,1
2023-04-03 11:00:00,18,40.2,28999.7,0.0,2
2023-04-03 11:10:00,18.4,40,27996.2,0.0,2
2023-04-03 11:20:00,18.1,40.4,26992.6,0.0,2
2023-04-03 11:30:00,18.5,39.7,26992.6,0.0,1
2023-04-03 11:40:00,19,39.5,25989.1,0.0,2
2023-04-03 11:50:00,18.9,40.6,25989.1,0.0,1
2023-04-03 12:00:00,18.8,41.4,25989.1,0.0,1
2023-04-03 12:10:00,18.7,41.6,25989.1,0.0,2
2023-04-03 12:20:00,19.1,40.8,25497.6,0.0,3
2023-04-03 12:30:00,19.1,40,25989.1,0.0,2
2023-04-03 12:40:00,18.9,39.4,25989.1,0.0,2
2023-04-03 12:50:00,19,39.5,25989.1,0.0,2
2023-04-03 13:00:00,19.5,38.1,26992.6,0.0,2
2023-04-03 13:10:00,20,37.4,26992.6,0.0,2
2023-04-03 13:20:00,19.9,37.8,26992.6,0.0,1.5
2023-04-03 13:30:00,20.1,38.5,26992.6,0.0,0.5
2023-04-03 13:40:00,20.5,39.2,26992.6,0.0,2.5
2023-04-03 13:50:00,20.2,38.7,27996.2,0.0,2.5
2023-04-03 14:00:00,20.2,39.5,27996.2,0.0,3
2023-04-03 14:10:00,20.2,39.2,28999.7,0.0,3
2023-04-03 14:20:00,20,39.5,28999.7,0.0,2
2023-04-03 14:30:00,20.1,38.2,28999.7,0.0,3
2023-04-03 14:40:00,20.2,37.9,29982.7,0.0,3
2023-04-03 14:50:00,20.1,37.7,29982.7,0.0,1.5
2023-04-03 15:00:00,20.4,37.8,30986.2,0.0,1
2023-04-03 15:10:00,20.4,37.5,30986.2,0.0,3
2023-04-03 15:20:00,20.4,37.5,30986.2,0.0,3
2023-04-03 15:30:00,20.4,34.1,30986.2,0.0,4
2023-04-03 15:40:00,19.9,35.8,30986.2,0.0,2
2023-04-03 15:50:00,19.4,38.9,30986.2,0.0,1
2023-04-03 16:00:00,20.1,38.7,29982.7,0.0,1
2023-04-03 16:10:00,20,29.4,29982.7,0.0,1
2023-04-03 16:20:00,19,36.3,28999.7,0.0,1
2023-04-03 16:30:00,19.9,28.7,27996.2,0.0,2
2023-04-03 16:40:00,19.8,27.9,25497.6,0.0,2
2023-04-03 16:50:00,19.4,24.3,23982.1,0.0,2
2023-04-03 17:00:00,19,26.1,22999,0.0,2
2023-04-03 17:10:00,19.6,25.1,20992,0.0,1.5
2023-04-03 17:20:00,19.3,25.1,18995.2,0.0,2
2023-04-03 17:30:00,19.3,24.4,16998.4,0.0,2
2023-04-03 17:40:00,19,21.5,14991.4,0.0,3
2023-04-03 17:50:00,19.3,29.3,12994.6,0.0,1
2023-04-03 18:00:00,18.1,50.2,9999.36,0.0,1
2023-04-03 18:10:00,16.8,57.1,6999.04,0.0,1
2023-04-03 18:20:00,16.7,57.4,3998.72,0.0,0.5
2023-04-03 18:30:00,16.2,59.1,999.68,0.0,1
2023-04-03 18:40:00,16,58.4,392,0.0,1
2023-04-03 18:50:00,15.5,58.7,44,0.0,1
2023-04-03 19:00:00,15.7,54.6,4,0.0,0
2023-04-03 19:10:00,15.8,53.8,2,0.0,0
2023-04-03 19:20:00,15.7,49.2,2,0.0,1
2023-04-03 19:30:00,15.8,51.4,2,0.0,1
2023-04-03 19:40:00,15.8,50.5,2,0.0,2
2023-04-03 19:50:00,15.7,50.5,2,0.0,0
2023-04-03 20:00:00,15.5,41.8,2,0.0,1
2023-04-03 20:10:00,15.2,39.3,2,0.0,2
2023-04-03 20:20:00,15.2,40.9,2,0.0,1
2023-04-03 20:30:00,15.2,42.5,2,0.0,1
2023-04-03 20:40:00,14.8,44.2,2,0.0,1
2023-04-03 20:50:00,14.5,46.3,2,0.0,1
2023-04-03 21:00:00,14.2,49.5,2,0.0,1
2023-04-03 21:10:00,14.1,50.1,2,0.0,3
2023-04-03 21:20:00,14.2,49.9,2,0.0,1
2023-04-03 21:30:00,13.9,51.9,2,0.0,1
2023-04-03 21:40:00,13.9,51.6,2,0.0,1
2023-04-03 21:50:00,13.6,52.6,2,0.0,1
2023-04-03 22:00:00,13.5,53.3,2,0.0,1
2023-04-03 22:10:00,13.2,54.7,0,0.0,1
2023-04-03 22:20:00,13.2,55.5,0,0.0,1
2023-04-03 22:30:00,13.1,55.8,2,0.0,1
2023-04-03 22:40:00,13.1,57.1,2,0.0,1
2023-04-03 22:50:00,12.9,58.4,2,0.0,1
2023-04-03 23:00:00,12.8,58.9,2,0.0,0
2023-04-03 23:10:00,12.7,59.6,2,0.0,1
2023-04-03 23:20:00,12.4,58.8,2,0.0,1
2023-04-03 23:30:00,12.1,58.7,0,0.0,1
2023-04-03 23:40:00,12.1,60.7,0,0.0,2
2023-04-03 23:50:00,12,63.2,2,0.0,1
2023-04-04 00:00:00,11.8,65.2,0,0.0,1
2023-04-04 00:10:00,11.6,66.3,0,0.0,1
2023-04-04 00:20:00,11.6,67.1,2,0.0,1
2023-04-04 00:30:00,11.9,68.3,0,0.0,1
2023-04-04 00:40:00,11.8,69.1,2,0.0,1
2023-04-04 00:50:00,11.8,70,0,0.0,1
2023-04-04 01:00:00,11.6,71,0,0.0,1
2023-04-04 01:10:00,11.7,71.2,2,0.0,1
2023-04-04 01:20:00,11.6,71.8,2,0.0,0
2023-04-04 01:30:00,11.6,72.8,2,0.0,1
2023-04-04 01:40:00,11.5,73,2,0.0,1
2023-04-04 01:50:00,11.8,73,2,0.0,1
2023-04-04 02:00:00,11.7,74.1,2,0.0,0
2023-04-04 02:10:00,11.4,75.1,2,0.0,1
2023-04-04 02:20:00,11.6,75.3,2,0.0,1
2023-04-04 02:30:00,11.6,76.1,0,0.0,1
2023-04-04 02:40:00,11.6,76.4,2,0.0,1
2023-04-04 02:50:00,11.4,76.8,0,0.0,1
2023-04-04 03:00:00,11.2,77.2,2,0.0,2
2023-04-04 03:10:00,11.3,77.7,0,0.0,1
2023-04-04 03:20:00,11.4,78,2,0.0,0
2023-04-04 03:30:00,11.4,78.7,0,0.0,1
2023-04-04 03:40:00,11.2,79.6,0,0.0,1.5
2023-04-04 03:50:00,11,80.5,0,0.0,0.5
2023-04-04 04:00:00,11,81.5,0,0.0,1
2023-04-04 04:10:00,10.8,82.1,0,0.0,1
2023-04-04 04:20:00,10.8,82.7,0,0.0,1
2023-04-04 04:30:00,10.9,82.8,2,0.0,0.5
2023-04-04 04:40:00,10.7,83.7,2,0.0,1
2023-04-04 04:50:00,10.8,84.2,0,0.0,1
2023-04-04 05:00:00,10.6,84.9,0,0.0,0
2023-04-04 05:10:00,10.9,85.2,2,0.0,0
2023-04-04 05:20:00,10.8,85.6,2,0.0,0
2023-04-04 05:30:00,10.6,86.2,2,0.0,1
2023-04-04 05:40:00,10.5,87,26,0.0,1
2023-04-04 05:50:00,10.6,87.9,999.68,0.0,1
2023-04-04 06:00:00,10.4,87.8,999.68,0.0,1
2023-04-04 06:10:00,10.5,88,2997.76,0.0,1
2023-04-04 06:20:00,10.6,88,9497.6,0.0,2
2023-04-04 06:30:00,10.8,88.5,6999.04,0.0,1
2023-04-04 06:40:00,10.9,88.5,5995.52,0.0,1
2023-04-04 06:50:00,11,89.4,6999.04,0.0,1
2023-04-04 07:00:00,11.2,89.8,7997.44,0.0,0.5
2023-04-04 07:10:00,11.4,90.8,7997.44,0.0,1
2023-04-04 07:20:00,11.7,90.6,8995.84,0.0,1
2023-04-04 07:30:00,11.8,90.7,11991,0.0,1.5
2023-04-04 07:40:00,12.1,90.5,40980.5,0.0,1
2023-04-04 07:50:00,12.4,87.9,30986.2,0.0,1
2023-04-04 08:00:00,12.8,85.4,39997.4,0.0,1
2023-04-04 08:10:00,13.2,82.8,34979.8,0.0,1
2023-04-04 08:20:00,13.8,80.5,32993.3,0.0,1
2023-04-04 08:30:00,14.1,79.9,36986.9,0.0,1
2023-04-04 08:40:00,14.4,78.4,38993.9,0.0,1
2023-04-04 08:50:00,15.2,76.4,45998.1,0.0,1
2023-04-04 09:00:00,15.4,75.6,39997.4,0.0,1
2023-04-04 09:10:00,15.6,74.4,33484.8,0.0,1
2023-04-04 09:20:00,15.3,75.6,28999.7,0.0,2
2023-04-04 09:30:00,15.9,76.5,41984,0.0,3
2023-04-04 09:40:00,15.6,78.7,39997.4,0.0,1
2023-04-04 09:50:00,16.1,79.4,39997.4,0.0,1
2023-04-04 10:00:00,16.8,76.9,37990.4,0.0,2
2023-04-04 10:10:00,17.5,74.2,24494.1,0.0,2
2023-04-04 10:20:00,17.1,76,30986.2,0.0,3
2023-04-04 10:30:00,18.3,69.7,41984,0.0,2.5
2023-04-04 10:40:00,18.6,68.5,35983.4,0.0,3
2023-04-04 10:50:00,18.9,67.7,39997.4,0.0,4
2023-04-04 11:00:00,19.3,65.7,18995.2,0.0,3
2023-04-04 11:10:00,19.5,63.5,21995.5,0.0,2
2023-04-04 11:20:00,18.5,67.4,40980.5,0.0,2
2023-04-04 11:30:00,19.2,58,20992,0.0,2
2023-04-04 11:40:00,21.2,44.3,27996.2,0.0,2.5
2023-04-04 11:50:00,22.3,38.5,38993.9,0.0,2
2023-04-04 12:00:00,22.7,38.4,27484.2,0.0,2.5
2023-04-04 12:10:00,22.6,39.3,26992.6,0.0,3
2023-04-04 12:20:00,22.7,38.8,41984,0.0,3
2023-04-04 12:30:00,23.1,36.3,35983.4,0.0,1.5
2023-04-04 12:40:00,23.4,36.1,25989.1,0.0,1.5
2023-04-04 12:50:00,23,37.1,28999.7,0.0,2
2023-04-04 13:00:00,22.1,37.3,30986.2,0.0,3.5
2023-04-04 13:10:00,22.2,38.4,32993.3,0.0,4
2023-04-04 13:20:00,21.9,37.6,36986.9,0.0,3
2023-04-04 13:30:00,22.3,36.1,44974.1,0.0,2.5
2023-04-04 13:40:00,22.9,35,32993.3,0.0,4
2023-04-04 13:50:00,23.2,34.9,35983.4,0.0,2
2023-04-04 14:00:00,23.5,34.7,37990.4,0.0,5.5
2023-04-04 14:10:00,23.4,30.7,34979.8,0.0,3.5
2023-04-04 14:20:00,23.2,32.4,36986.9,0.0,5
2023-04-04 14:30:00,22.9,31.4,33996.8,0.0,5.5
2023-04-04 14:40:00,22.7,31.8,35983.4,0.0,4
2023-04-04 14:50:00,22.1,33.5,35491.8,0.0,4
2023-04-04 15:00:00,22.1,35.7,25989.1,0.0,5
2023-04-04 15:10:00,21.6,40.2,23982.1,0.0,6
2023-04-04 15:20:00,21.2,41.3,24494.1,0.0,4.5
2023-04-04 15:30:00,21.3,42.4,24985.6,0.0,5.5
2023-04-04 15:40:00,21.6,40.4,32481.3,0.0,6
2023-04-04 15:50:00,21.1,40.7,20992,0.0,5.5
2023-04-04 16:00:00,21.7,41.5,24985.6,0.0,3
2023-04-04 16:10:00,21.3,42.2,16998.4,0.0,3
2023-04-04 16:20:00,21.1,43.8,18995.2,0.0,6
2023-04-04 16:30:00,20.9,44.8,23982.1,0.0,4
2023-04-04 16:40:00,21.1,44.9,17991.7,0.0,3
2023-04-04 16:50:00,20.5,46.9,12994.6,0.0,6
2023-04-04 17:00:00,20.4,47.9,11991,0.0,4
2023-04-04 17:10:00,20.4,47.6,11991,0.0,3
2023-04-04 17:20:00,20.3,49,10997.8,0.0,2
2023-04-04 17:30:00,20.4,51.3,20992,0.0,3
2023-04-04 17:40:00,20.3,51.7,21995.5,0.0,5.5
2023-04-04 17:50:00,20,52.4,17991.7,0.0,2
2023-04-04 18:00:00,19.8,54.7,3998.72,0.0,5
2023-04-04 18:10:00,19.3,56.4,999.68,0.0,2
2023-04-04 18:20:00,19,60.5,999.68,0.0,2.5
2023-04-04 18:30:00,18.9,61.4,448,0.0,3
2023-04-04 18:40:00,18.8,62.1,64,0.0,2
2023-04-04 18:50:00,18.6,62.8,14,0.0,2
2023-04-04 19:00:00,18.6,63.3,2,0.0,1
2023-04-04 19:10:00,18.4,64.2,2,0.0,2
2023-04-04 19:20:00,18.6,64.8,2,0.0,1
2023-04-04 19:30:00,18.3,65.5,2,0.0,2
2023-04-04 19:40:00,18.1,66.6,2,0.0,3
2023-04-04 19:50:00,18.1,66.9,2,0.0,1
2023-04-04 20:00:00,18,67.5,2,0.0,2
2023-04-04 20:10:00,18.1,68.1,2,0.0,1
2023-04-04 20:20:00,17.8,68.5,2,0.0,1
2023-04-04 20:30:00,17.9,68.8,2,0.0,1.5
2023-04-04 20:40:00,17.8,69,2,0.0,1
2023-04-04 20:50:00,17.6,69.6,2,0.0,1
2023-04-04 21:00:00,17.7,70.2,2,0.0,1
2023-04-04 21:10:00,17.9,70.2,2,0.0,2
2023-04-04 21:20:00,17.9,69.8,2,0.0,1
2023-04-04 21:30:00,17.8,69.9,0,0.0,1
2023-04-04 21:40:00,17.9,70.1,2,0.0,2
2023-04-04 21:50:00,17.6,69.7,2,0.0,2
2023-04-04 22:00:00,17.9,69.4,2,0.0,2
2023-04-04 22:10:00,17.9,69.3,2,0.0,2
2023-04-04 22:20:00,18,68.9,2,0.0,1
2023-04-04 22:30:00,17.8,68,2,0.0,1
2023-04-04 22:40:00,18,67.4,2,0.0,2
2023-04-04 22:50:00,18,66.7,2,0.0,1